Location: Unspecified
(0.0000°N, 0.0000°E)
Time: 00:38:49
(UTC+00:00)

CSTB 1 - Pass Details

Date: 21 May 2026
Orbit: 607 x 696 km, 98.4° (Epoch: 10 June)

Event Time Altitude Azimuth Distance (km) Brightness Sun altitude
Rises 05:19:03 0° 17° (NNE) 3,054 ? -8.8°
Reaches altitude 10° 05:21:18 10° 20° (NNE) 2,143 ? -8.3°
Maximum altitude 05:25:58 66° 102° (ESE) 759 ? -7.2°
Drops below altitude 10° 05:30:38 10° 184° (S) 2,144 ? -6.1°
Sets 05:32:53 0° 187° (S) 3,056 ? -5.6°
